Regional Weather Roundup
Issued by NWS

Home | Current Version | Previous Version | Text Only | Print | Product List | Glossary Off
Versions: 1 2 3 4 5 6 7 8 9 10 11 12 13 14 15 16 17 18 19 20 21 22 23 24 25 26 27 28 29 30 31 32 33 34 35 36 37 38 39 40 41 42 43 44 45 46 47

000
ASUS43 KDMX 251407
RWRIA

WEATHER ROUNDUP FOR IOWA
NATIONAL WEATHER SERVICE DES MOINES IA
800 AM CST THU DEC 25 2014

NOTE: "FAIR" INDICATES FEW OR NO CLOUDS BELOW 12,000 FEET WITH NO
SIGNIFICANT WEATHER AND/OR OBSTRUCTIONS TO VISIBILITY.

* - THESE STATIONS ARE NOT NWS STATIONS...THUS NOT UNDER NWS
QUALITY CONTROL.  THEY ALSO DO NOT REPORT WEATHER SUCH
AS PRECIPITATION OR FOG.

IAZ001>003-012>014-020>022-031>034-043>046-251500-
   NORTHWEST IOWA

CITY           SKY/WX    TMP DP  RH WIND       PRES   REMARKS
CARROLL *      CLEAR     32  28  86 S13       29.65R WCI  22
CHEROKEE *     CLOUDY    30  28  93 S5        29.63R WCI  25
DENISON *      CLEAR     32  28  86 S8        29.62S WCI  25
LE MARS *      CLEAR     30  28  93 S8        29.60F WCI  23
ORANGE CITY *  CLEAR     30  27  86 S6        29.60S WCI  24
SHELDON *      CLEAR     28  28 100 SE6       29.60R WCI  22
SIOUX CITY     MOCLDY    30  26  85 E7        29.62R WCI  23
SPENCER        CLOUDY    29  25  85 S7        29.63R WCI  22
STORM LAKE *   CLEAR     30  27  86 S10       29.63R WCI  21
$$

IAZ055>058-069>071-079>083-090>094-251500-
   SOUTHWEST IOWA

CITY           SKY/WX    TMP DP  RH WIND       PRES   REMARKS
ATLANTIC *     CLEAR     32  28  86 S13       29.67S WCI  22
AUDUBON *      CLEAR     32  25  74 S9        29.67S WCI  24
CLARINDA *     CLEAR     34  28  80 S9        29.72S WCI  26
COUNCIL BLFS * CLEAR     32  28  86 S9        29.63R WCI  24
CRESTON *      CLEAR     32  28  86 S14       29.72R WCI  22
HARLAN  *      CLEAR     32  32 100 S6        29.69R WCI  26
LAMONI         CLOUDY    30  27  88 S13       29.76S WCI  20
RED OAK *      CLEAR     34  28  80 S13       29.69S WCI  25
SHENANDOAH *   CLEAR     32  28  86 S10G16    29.69S WCI  24
$$

IAZ047>049-059>061-072>074-084-251500-
   CENTRAL IOWA

CITY           SKY/WX    TMP DP  RH WIND       PRES   REMARKS
AMES           CLOUDY    32  27  81 S9        29.72R WCI  24
ANKENY *       CLEAR     32  28  86 S8        29.73S WCI  25
CHARITON *     CLEAR     32  28  86 S15       29.77R WCI  22
DES MOINES     CLOUDY    33  28  81 S10       29.74R WCI  25
GRINNELL*      MOCLDY    30  28  93 S14       29.77R WCI  20
KNOXVILLE *    CLEAR     32  28  86 S13       29.75R WCI  22
MARSHALLTOWN   CLOUDY    31  28  89 S12G21    29.74R WCI  22
PELLA *        MOCLDY    32  30  93 S10       29.79R WCI  24
PERRY *          N/A     32  30  93 S9        29.69S WCI  24
$$

IAZ004>006-015-016-023>025-035-036-251500-
   NORTH CENTRAL IOWA

CITY           SKY/WX    TMP DP  RH WIND       PRES   REMARKS
ALGONA *       CLEAR     30  30 100 S14       29.66S WCI  20
CLARION *      CLEAR     30  30 100 S14       29.69S WCI  20
ESTHERVILLE    CLOUDY    28  26  92 S13       29.62R WCI  17
FORT DODGE *   CLOUDY    30  25  80 S7        29.68R WCI  23
MASON CITY     CLOUDY    29  27  92 S10       29.71R WCI  20
FOREST CITY *  CLEAR     30  28  93 SE9       29.67F WCI  22
IOWA FALLS *     N/A     30  28  93 S12       29.72S WCI  21
$$

IAZ007>011-017>019-026>030-037>042-050>054-066-251500-
   NORTHEAST IOWA

CITY           SKY/WX    TMP DP  RH WIND       PRES   REMARKS
CEDAR RAPIDS   CLEAR     31  29  92 S10       29.80S WCI  22
CHARLES CITY * CLOUDY    30  30 100 S14       29.74R WCI  20
CLINTON *      CLOUDY    34  27  75 SW13      29.89R WCI  25
DECORAH *      CLOUDY    30  28  93 S10       29.75R WCI  21
DUBUQUE        CLOUDY    31  27  85 SW17      29.82R WCI  19
MONTICELLO *   CLOUDY    32  30  93 S9        29.83R WCI  24
OELWEIN *      CLOUDY    30  30 100 S13       29.77S WCI  20
WATERLOO       MOCLDY    30  28  92 S13       29.76R WCI  20
$$

IAZ064-065-067-068-078-251500-
   EAST CENTRAL IOWA

CITY           SKY/WX    TMP DP  RH WIND       PRES   REMARKS
DAVENPORT      CLOUDY    33  27  78 S9        29.87R WCI  25
IOWA CITY      CLEAR     31  28  89 S9        29.85R WCI  23
MT. PLEASANT * CLEAR     32  30  93 S14       29.86S WCI  22
MUSCATINE *    CLEAR     34  30  86 S8        29.87R WCI  27
QUAD CITIES    PTCLDY    33  27  78 S8        29.87R WCI  26
$$

IAZ062-063-075>077-085>089-095>099-251500-
   SOUTHEAST IOWA

CITY           SKY/WX    TMP DP  RH WIND       PRES   REMARKS
BURLINGTON     CLEAR     33  30  88 S12       29.88R WCI  24
FAIRFIELD *    CLEAR     32  28  86 S13       29.83S WCI  22
FORT MADISON * CLEAR     34  32  93 S12       29.88S WCI  25
KEOKUK *       CLEAR     34  30  86 S12G21    29.88R WCI  25
OSKALOOSA *      N/A     30  28  93 S13       29.80S WCI  20
CENTERVILLE *  CLEAR     30  30 100 S10       29.82R WCI  21
OTTUMWA        PTCLDY    31  28  89 S16       29.80R WCI  20
WASHINGTON *   CLEAR     32  32 100 S15       29.83S WCI  22
$$

ABBREVIATIONS USED IN REMARKS
   TC - TEMPERATURES IN CELSIUS
  WCI - WIND CHILL INDEX
   HX - HEAT INDEX
  VSB - VISIBILITY
$$



USA.gov is the U.S. government's official web portal to all federal, state and local government web resources and services.